INTELSAT 17 (IS-17) (37238 NORAD) Tracking and Keplerian Element Data

This shows tracking and keplerian element data for the satellite.

Feedback or suggestion? Click here.




ElementValue
Catalog37238
NameINTELSAT 17 (IS-17)
Epoch Orbit4582
Epoch Day159.92603113
Epoch Year2024
RAAN84.91
Inclination0.0076
Eccentricity0.0003087
Argument of Perigee18.7454
Mean Anonmoly192.5093
Mean Motion1.00271467
Decay Rate-2E-08
L11 37238U 10065B 24159.92603113 -.00000002 00000+0 00000+0 0 9992
L22 37238 0.0076 84.9100 0003087 18.7454 192.5093 1.00271467 45823



Live tracking and technical data element details for INTELSAT 17 (IS-17) (NORAD 37238). INTELSAT 17 (IS-17) can be tracked NOW for your location showing map with azimuth and elevation plus other details from your city location.







IsCatalogInMostPopularTable: catalog: 37238, numindb: 655
Update: records affected: 1



GetName: 37238 INTELSAT 17 (IS-17)

Hit Count: updated at: Fri, 14 Jun 2024 19:30:43 GMT